Wind_Speed
10 9 10 12 14 15 15 16 15 14 14 14 14 15 16 15 16 16 15 15 15 15 16 15 15 15 14 14 13 13 13 12 12 12 12 11 11 11 11 11 12 12 13 13
9 10 10 11 13 14 15 16 17 16 15 14 14 15 16 16 16 17 16 16 16 16 16 16 16 16 15 15 14 14 14 14 14 14 14 13 13 13 13 13 14 14 15 15
8 9 10 11 11 13 15 16 16 17 16 16 16 16 16 17 17 17 18 17 17 17 17 17 17 17 16 16 16 16 15 16 15 15 15 15 15 15 15 15 16 16 16 17
9 10 11 10 11 12 13 15 16 16 17 18 18 17 17 17 16 17 18 18 18 18 18 18 18 18 18 17 17 17 17 17 17 17 17 16 17 17 17 17 17 18 18 19
11 11 10 10 11 11 12 14 15 16 17 18 18 18 18 18 18 18 18 19 19 19 19 19 19 19 19 19 19 19 19 19 19 19 19 19 19 19 19 19 19 20 20 21
12 12 11 11 11 12 12 14 15 16 17 17 18 18 18 18 18 18 19 20 19 19 19 19 19 19 19 20 20 20 20 21 21 21 21 21 21 21 21 21 21 22 23 23
14 14 13 13 13 13 15 16 16 16 17 18 18 18 18 18 19 19 20 20 20 20 20 20 21 21 21 21 21 22 23 23 23 23 23 23 23 23 23 23 24 24 25 25
16 16 16 16 15 15 16 16 17 17 18 18 18 19 19 19 20 20 21 21 21 21 22 22 23 23 22 22 23 23 24 24 24 24 24 24 24 25 25 25 26 26 27 28
18 19 19 19 18 17 18 18 18 18 19 20 20 20 20 20 20 21 21 21 22 22 23 24 23 23 23 24 24 24 25 25 25 25 25 25 26 26 27 27 28 29 29 30
22 22 23 22 21 21 21 21 21 20 20 21 21 21 21 21 21 22 22 22 23 23 23 23 23 23 24 25 26 26 26 26 26 26 27 27 28 29 29 30 30 31 31 32
23 23 24 24 24 23 22 23 23 23 22 22 22 22 22 22 23 23 23 23 23 23 23 23 24 25 26 26 27 27 27 28 28 28 29 29 30 31 31 32 33 34 34 35
27 26 27 26 24 24 23 24 24 24 24 24 23 23 24 24 24 24 25 25 24 24 25 25 26 26 27 27 28 29 29 29 30 31 31 31 32 32 33 35 35 36 37 38
29 28 29 28 26 25 24 24 25 25 25 25 25 25 25 26 25 25 25 25 26 26 27 27 27 28 28 29 30 30 31 31 32 32 33 33 34 35 36 37 38 39 40 41
31 31 31 30 29 28 27 27 26 26 26 26 27 27 27 27 27 27 27 27 28 28 29 29 29 29 30 31 31 32 32 33 33 34 35 36 37 38 39 39 40 41 42 43
33 33 33 33 32 32 30 29 29 28 28 28 28 28 28 29 29 28 28 29 30 30 30 31 30 30 31 32 33 34 34 35 35 36 38 39 39 40 41 42 43 44 44 45
36 36 35 35 34 33 32 32 31 31 31 30 30 30 30 30 31 31 31 31 32 32 32 32 32 32 33 34 35 36 37 37 39 39 41 42 42 43 44 45 45 46 47 47
37 37 37 37 36 35 35 35 34 34 33 32 32 32 32 32 33 33 33 33 34 34 34 34 35 35 36 37 38 39 40 40 41 42 43 44 45 46 46 47 48 48 49 49
38 38 38 38 38 37 37 37 37 36 36 35 35 34 34 35 35 35 35 35 35 35 36 36 37 38 38 39 40 41 42 43 44 44 45 46 46 47 48 49 49 50 50 51
39 39 39 39 39 39 38 38 38 38 38 37 37 37 37 37 36 36 37 37 37 37 37 38 39 39 40 41 42 43 43 44 45 46 47 47 48 49 50 50 51 51 52 52
40 40 40 40 40 40 40 39 39 39 39 39 39 39 39 39 39 39 38 38 38 39 39 40 41 41 42 43 43 44 45 46 47 47 48 49 49 50 51 52 52 53 53 53
41 41 41 41 40 40 40 40 40 40 41 41 42 42 42 41 41 41 41 41 41 42 42 42 43 43 44 45 45 46 47 47 47 48 49 50 51 51 52 53 53 53 54 54
41 42 42 42 42 42 42 42 43 43 43 43 43 43 44 44 43 43 44 44 44 44 45 45 46 46 46 47 47 48 49 49 49 50 50 51 52 52 53 54 54 54 54 54
41 42 43 43 44 44 45 45 45 45 45 45 45 45 45 45 45 45 46 46 46 47 47 48 48 49 49 49 50 50 51 51 51 51 52 53 54 54 54 54 54 54 54 55
41 42 43 44 45 45 46 46 47 47 48 48 48 48 48 48 48 48 48 48 48 49 49 49 50 51 51 52 52 52 52 52 53 53 53 54 55 55 55 55 55 55 55 55
42 43 44 44 45 46 46 47 47 48 48 48 49 49 49 50 50 49 50 50 50 51 51 51 52 52 52 52 53 53 54 54 54 55 55 55 55 55 55 55 55 55 55 56
42 43 43 44 45 46 47 47 48 48 48 49 49 50 50 51 52 51 51 51 52 52 53 53 53 53 54 54 54 55 55 55 55 55 54 55 55 55 55 55 56 56 56 56
42 42 43 44 44 45 46 47 48 48 49 49 50 50 51 51 52 53 53 52 52 52 53 53 54 55 55 55 55 55 55 55 55 55 55 55 56 56 56 55 55 56 56 56
Wind_Direction
228 236 233 229 223 221 219 219 220 222 226 231 236 240 242 239 236 234 234 234 233 234 236 238 239 240 242 241 242 245 249 253 257 261 266 272 278 283 289 293 301 308 312 314
230 234 233 232 228 225 222 222 223 225 230 239 242 241 240 238 238 234 234 236 235 236 238 240 241 243 247 245 245 248 253 256 260 263 266 270 275 280 285 289 295 301 304 307
223 230 235 235 231 229 228 229 230 228 230 236 238 241 242 240 239 239 237 237 237 238 240 244 246 247 250 249 249 252 256 259 261 264 266 270 274 279 283 287 291 295 299 302
230 231 234 232 233 235 234 232 232 233 235 238 240 244 244 244 242 242 243 243 242 242 244 245 247 250 251 251 253 256 258 261 263 265 268 271 275 278 282 286 289 292 295 298
236 236 234 237 239 240 238 235 235 237 237 240 244 247 247 245 244 246 246 244 244 245 247 247 249 250 251 251 254 257 259 261 264 266 269 272 275 279 281 285 288 291 293 295
240 238 235 237 240 243 244 240 238 238 240 243 246 250 251 249 249 248 248 247 245 246 247 249 250 251 252 253 255 257 259 262 265 267 269 271 274 277 280 283 287 289 291 293
245 244 244 244 242 242 243 244 240 241 243 247 252 254 254 253 252 251 251 249 247 248 249 251 252 253 254 254 257 259 261 264 266 268 270 272 274 277 280 283 286 288 290 292
246 246 245 248 248 246 247 249 247 247 249 252 254 255 253 254 253 252 252 250 250 250 252 252 254 256 257 258 259 261 263 265 266 268 270 272 275 278 281 284 287 289 290 292
248 249 250 252 252 252 254 256 254 254 254 253 254 254 256 256 254 252 250 252 253 253 253 255 257 259 261 262 261 262 264 265 267 268 271 274 277 280 282 285 287 289 290 292
249 250 254 255 257 256 256 257 257 258 259 256 255 255 255 255 256 254 252 252 252 253 255 256 258 260 262 263 263 263 265 266 268 270 272 275 278 281 283 285 287 289 291 292
253 255 256 256 257 256 256 258 258 258 259 259 257 256 257 259 259 257 254 251 253 255 257 260 261 262 264 265 265 265 266 268 269 271 274 276 279 281 283 285 287 289 290 292
252 254 256 258 258 260 258 257 258 259 260 260 260 259 257 259 260 258 255 255 256 259 261 262 263 264 265 266 266 267 268 269 271 273 275 277 279 281 284 286 288 289 290 292
252 253 255 257 260 260 260 260 259 261 262 262 261 261 260 259 260 261 261 260 260 261 262 264 264 265 266 268 269 269 270 271 272 273 275 277 279 282 284 286 288 289 290 292
252 253 254 256 259 260 261 261 262 262 262 263 263 262 262 260 260 261 261 262 262 262 263 264 264 265 267 269 270 270 271 272 273 275 276 278 280 282 285 286 288 289 290 291
252 253 255 256 258 259 261 262 263 263 263 263 263 263 263 261 260 261 262 263 264 264 265 265 266 267 268 269 270 271 272 273 275 276 278 280 282 284 285 286 287 289 290 291
252 253 255 257 258 259 260 262 263 263 263 263 263 263 264 263 263 262 263 264 264 265 266 266 266 266 268 269 271 273 274 275 276 278 280 282 283 284 285 286 288 289 290 291
254 254 256 257 257 258 259 261 262 263 263 263 263 263 264 264 264 265 264 264 265 266 266 267 268 268 269 271 273 274 276 277 278 279 281 282 283 285 286 287 288 289 290 291
256 256 257 257 257 258 258 259 261 262 262 262 262 263 263 264 265 265 265 266 266 267 268 269 269 270 272 273 274 275 277 278 279 280 282 283 284 285 286 287 289 289 290 291
257 257 257 257 257 258 258 259 260 261 262 262 262 262 263 264 265 266 266 266 267 267 269 270 270 271 273 274 275 276 277 278 279 281 282 283 284 285 287 288 289 290 290 291
256 258 258 258 258 258 258 259 260 260 260 261 262 263 263 264 265 266 267 268 268 269 269 271 271 272 273 275 276 277 278 279 280 281 282 283 284 286 287 288 289 289 290 291
256 257 258 258 258 258 259 260 260 261 261 262 262 263 264 264 265 266 267 267 268 269 270 272 273 274 275 276 277 278 279 280 281 282 283 284 285 286 287 288 289 290 290 290
256 257 258 259 259 259 259 260 261 262 262 263 264 265 265 265 266 267 268 269 269 270 271 272 273 274 275 276 277 278 279 280 281 282 283 284 286 287 287 288 289 289 289 290
256 257 258 259 260 260 261 261 262 262 263 264 265 265 266 266 267 268 269 269 270 272 273 274 274 275 275 276 277 278 279 280 281 283 284 285 286 286 287 288 288 289 289 289
258 259 260 261 261 261 261 262 262 263 264 264 265 265 266 267 268 269 270 270 271 272 273 274 275 276 277 277 278 278 279 280 281 282 283 284 285 286 287 288 288 289 289 289
261 261 261 261 261 262 263 263 264 264 264 265 265 266 267 268 269 270 270 271 272 273 274 275 276 276 277 278 278 279 279 280 281 282 283 284 285 286 286 287 287 288 288 289
263 263 263 263 263 263 264 264 264 264 265 265 266 266 267 268 269 270 271 272 273 274 275 275 276 276 277 278 279 280 280 281 281 282 282 283 284 284 285 286 287 288 288 289
265 265 264 264 264 265 265 265 266 266 266 266 267 267 268 269 270 270 271 272 273 274 274 275 276 276 277 278 279 280 280 281 281 282 282 283 283 284 285 286 287 287 288 289
Height
5823 5824 5826 5828 5830 5832 5835 5837 5839 5842 5844 5846 5847 5849 5851 5853 5855 5857 5859 5861 5863 5865 5867 5869 5871 5873 5874 5876 5877 5879 5880 5881 5882 5883 5883 5883 5883 5883 5883 5882 5882 5881 5880 5879
5822 5823 5824 5826 5828 5830 5832 5835 5837 5839 5841 5843 5844 5845 5847 5850 5851 5853 5855 5858 5860 5862 5864 5866 5868 5870 5871 5873 5874 5876 5877 5878 5879 5879 5880 5880 5880 5880 5880 5879 5879 5878 5877 5876
5820 5821 5822 5824 5826 5827 5830 5832 5834 5836 5839 5839 5841 5843 5845 5846 5848 5849 5852 5854 5856 5859 5861 5863 5864 5866 5868 5869 5871 5872 5873 5874 5875 5876 5876 5876 5877 5877 5876 5876 5875 5874 5873 5872
5818 5820 5821 5824 5824 5825 5827 5829 5831 5833 5835 5836 5838 5840 5841 5843 5845 5847 5849 5851 5853 5855 5857 5859 5860 5862 5864 5865 5867 5868 5869 5870 5871 5871 5872 5872 5872 5872 5872 5871 5871 5870 5869 5867
5815 5817 5818 5820 5821 5822 5824 5826 5828 5829 5831 5833 5834 5836 5838 5839 5841 5843 5845 5847 5849 5851 5853 5854 5856 5858 5859 5861 5862 5863 5865 5865 5866 5867 5867 5867 5867 5867 5867 5866 5866 5865 5864 5862
5813 5814 5816 5818 5819 5820 5822 5823 5824 5825 5827 5829 5831 5832 5834 5836 5837 5838 5840 5842 5844 5846 5848 5850 5851 5853 5854 5856 5857 5858 5859 5860 5861 5861 5862 5862 5862 5862 5861 5861 5860 5859 5858 5857
5810 5811 5813 5814 5815 5818 5820 5820 5821 5822 5823 5825 5826 5828 5830 5831 5832 5834 5836 5838 5840 5841 5843 5845 5846 5847 5849 5850 5852 5853 5853 5854 5855 5855 5856 5856 5856 5856 5855 5855 5854 5853 5852 5850
5807 5808 5811 5811 5812 5814 5815 5815 5816 5818 5819 5821 5822 5824 5825 5826 5828 5829 5831 5833 5834 5836 5838 5839 5841 5842 5843 5845 5846 5847 5847 5848 5849 5849 5849 5849 5849 5849 5848 5848 5847 5846 5845 5843
5803 5806 5806 5806 5808 5809 5810 5811 5812 5814 5815 5816 5818 5819 5820 5821 5823 5824 5826 5827 5829 5831 5832 5833 5835 5836 5837 5838 5839 5840 5840 5841 5842 5842 5842 5842 5842 5842 5841 5840 5839 5838 5837 5835
5798 5799 5800 5801 5803 5804 5806 5807 5808 5809 5810 5811 5813 5814 5815 5817 5818 5819 5820 5821 5823 5824 5826 5827 5828 5829 5830 5831 5832 5833 5833 5834 5834 5835 5835 5835 5834 5834 5833 5832 5831 5830 5828 5826
5792 5794 5794 5796 5797 5798 5800 5802 5803 5804 5805 5806 5807 5809 5810 5811 5812 5813 5814 5815 5817 5818 5819 5820 5821 5822 5823 5824 5825 5825 5826 5826 5827 5827 5827 5827 5826 5825 5825 5824 5822 5821 5819 5817
5786 5787 5788 5789 5790 5792 5794 5795 5796 5798 5799 5800 5801 5802 5803 5805 5806 5807 5808 5809 5810 5811 5812 5813 5814 5815 5815 5816 5817 5818 5818 5818 5819 5818 5818 5818 5817 5817 5815 5814 5812 5810 5808 5806
5778 5780 5781 5782 5784 5786 5787 5789 5790 5791 5792 5794 5794 5796 5797 5798 5799 5800 5801 5802 5803 5804 5805 5805 5806 5807 5808 5808 5809 5809 5810 5810 5810 5809 5809 5809 5808 5807 5805 5804 5802 5800 5797 5795
5771 5772 5774 5776 5777 5778 5780 5781 5783 5784 5785 5786 5787 5789 5789 5790 5791 5792 5793 5794 5795 5796 5797 5797 5798 5798 5799 5800 5800 5800 5800 5800 5800 5800 5799 5799 5798 5796 5795 5793 5791 5788 5786 5783
5762 5764 5766 5767 5769 5770 5772 5773 5775 5776 5777 5778 5779 5780 5781 5782 5783 5784 5785 5786 5786 5787 5788 5788 5789 5790 5790 5790 5790 5790 5790 5790 5790 5789 5788 5787 5786 5785 5783 5781 5779 5776 5774 5771
5753 5755 5756 5758 5760 5762 5763 5765 5766 5767 5768 5769 5771 5772 5773 5774 5775 5775 5776 5777 5778 5778 5779 5779 5780 5780 5780 5780 5780 5780 5780 5779 5779 5778 5777 5775 5774 5772 5770 5768 5765 5763 5760 5757
5743 5745 5747 5749 5751 5752 5754 5755 5756 5757 5759 5760 5761 5762 5763 5764 5765 5766 5767 5767 5768 5768 5769 5769 5770 5770 5770 5770 5769 5769 5768 5768 5767 5765 5764 5762 5761 5758 5756 5754 5751 5749 5746 5742
5732 5735 5736 5738 5740 5742 5743 5745 5746 5747 5748 5750 5751 5752 5753 5754 5755 5756 5756 5757 5757 5758 5758 5759 5759 5759 5759 5758 5758 5757 5756 5755 5754 5753 5751 5749 5747 5745 5742 5739 5737 5734 5731 5727
5721 5723 5725 5727 5729 5730 5732 5734 5735 5737 5738 5739 5740 5741 5742 5743 5744 5745 5746 5746 5747 5747 5747 5747 5747 5747 5747 5746 5745 5744 5743 5742 5740 5739 5737 5735 5732 5730 5727 5725 5722 5718 5715 5712
5710 5711 5713 5715 5717 5719 5720 5722 5724 5725 5726 5727 5729 5730 5731 5732 5733 5734 5734 5735 5735 5735 5735 5735 5735 5734 5734 5733 5732 5731 5729 5728 5726 5724 5722 5720 5717 5715 5712 5709 5706 5703 5699 5696
5698 5700 5701 5703 5705 5706 5708 5710 5712 5713 5714 5715 5716 5718 5719 5720 5720 5721 5722 5723 5723 5723 5722 5722 5722 5721 5720 5719 5718 5716 5715 5713 5711 5709 5707 5705 5702 5699 5696 5693 5690 5687 5683 5680
5686 5688 5689 5691 5693 5694 5696 5697 5699 5700 5702 5703 5704 5705 5706 5707 5707 5708 5709 5709 5709 5709 5709 5708 5708 5707 5706 5704 5703 5701 5700 5698 5696 5694 5692 5689 5686 5683 5680 5677 5674 5670 5667 5663
5674 5675 5677 5679 5680 5681 5683 5684 5685 5687 5688 5689 5690 5691 5692 5693 5693 5694 5695 5695 5695 5694 5694 5693 5693 5691 5690 5689 5687 5686 5684 5682 5680 5678 5676 5673 5670 5667 5664 5660 5657 5654 5650 5646
5661 5663 5664 5665 5666 5668 5669 5671 5672 5673 5674 5675 5676 5677 5678 5678 5679 5679 5679 5680 5680 5679 5678 5678 5677 5675 5674 5672 5671 5669 5668 5666 5664 5661 5659 5656 5653 5650 5647 5643 5640 5637 5633 5629
5648 5649 5650 5651 5653 5654 5655 5656 5657 5658 5659 5660 5661 5661 5662 5663 5663 5663 5663 5663 5663 5663 5662 5661 5660 5658 5657 5656 5654 5653 5651 5649 5647 5644 5642 5639 5636 5633 5630 5626 5623 5619 5616 5612
5634 5635 5636 5637 5638 5639 5640 5641 5642 5643 5643 5644 5645 5646 5646 5646 5647 5647 5647 5647 5646 5646 5645 5644 5643 5641 5640 5639 5637 5635 5633 5631 5629 5627 5624 5621 5619 5616 5612 5609 5606 5602 5599 5595
5621 5622 5623 5624 5624 5625 5625 5626 5626 5627 5628 5628 5629 5630 5630 5630 5630 5630 5630 5629 5629 5628 5627 5626 5625 5624 5623 5621 5619 5617 5615 5613 5611 5609 5607 5604 5601 5598 5595 5592 5589 5585 5582 5578